Aérodrome :
LOGIN :

S'inscrire | Disclaimer

   EN    FR    IT 

 










Légende :    VFR   VFR Marginal   IFR   IFR Intensif   IFR Très Intensif
Visi : 
Plafond : 
>= 8 km
>= 3000ft
5 à 8 km
1000 à 3000 ft
1500m à 5 km
500 à 1000 ft
800 à 1500m
200 à 500 ft
< 800m
< 200 ft
Symboles :   Orages  Brouillard  Fortes neiges  Fortes précipitations  Vent > 20 kt
SIGMETs :   Divers  Orages  Givrage  Turbulence  Onde Orograph.  Cendres Volcan.







- Altitude de l'aérodrome : 2096 ft
- Code IATA : AUR
- Voir les cartes d'approche


LFLW - Aurillac

DERNIER METAR :
  • 200200Z AUTO 10002KT CAVOK 07/06 Q1024

METARs EXPIRÉS :
  • 200130Z AUTO VRB02KT CAVOK 07/06 Q1024
  • 200100Z AUTO 09002KT CAVOK 07/06 Q1024
  • 200030Z AUTO 08002KT CAVOK 08/07 Q1024
  • 200000Z AUTO 10003KT CAVOK 09/07 Q1025
  • 192330Z AUTO 05002KT CAVOK 10/08 Q1025

Prévision TAF périmée.
Pas de NOTAMs connus pour ce terrain.



MET'MAP, la Météo Aéronautique d'un coup d'oeil ! - Copyright ORBIFLY Décembre 2007 - Disclaimer

ORBIFLY MET'MAP TEAM :

Programmation & Développement : Alexandra Zaïnal
Conception & Développement : Baudouin d'Aumeries
Co-Programmation & Développement : Marc-Olivier Méhu
Soutien technique & logistique : Manuel Goepfert

Contact : metmap@orbifly.com




SOURCES & CREDITS :

   NOAA